| time (UTC) | temp F | wind direction | speed knots | gust knots | rain 1hr in | rain 24hr in | rain mn in | humidity % | barometer mb |
| 20260504214607 | 73 | 163 | 5.2 | 13.9 | 0.00 | 0.00 | 0.00 | 40 | 1009.9 |
| 20260504213057 | 73 | 176 | 7.0 | 16.5 | 0.00 | 0.00 | 0.00 | 38 | 1009.9 |
| 20260504211555 | 73 | 163 | 3.5 | 12.2 | 0.00 | 0.00 | 0.00 | 40 | 1009.9 |
| 20260504210059 | 73 | 147 | 6.1 | 13.0 | 0.00 | 0.00 | 0.00 | 39 | 1009.9 |
| 20260504204557 | 73 | 193 | 5.2 | 11.3 | 0.00 | 0.00 | 0.00 | 42 | 1010.0 |
| 20260504203056 | 72 | 123 | 3.5 | 13.0 | 0.00 | 0.00 | 0.00 | 42 | 1010.2 |
| 20260504201547 | 72 | 181 | 4.3 | 13.0 | 0.00 | 0.00 | 0.00 | 41 | 1010.3 |
| 20260504200044 | 71 | 221 | 7.8 | 14.8 | 0.00 | 0.00 | 0.00 | 41 | 1010.6 |
| 20260504194547 | 71 | 161 | 3.5 | 12.2 | 0.00 | 0.00 | 0.00 | 43 | 1010.8 |
| 20260504193040 | 72 | 127 | 5.2 | 12.2 | 0.00 | 0.00 | 0.00 | 41 | 1011.1 |
| 20260504191537 | 71 | 173 | 4.3 | 11.3 | 0.00 | 0.00 | 0.00 | 41 | 1011.5 |
| 20260504190037 | 70 | 215 | 3.5 | 10.4 | 0.00 | 0.00 | 0.00 | 43 | 1011.7 |
| 20260504184533 | 71 | 200 | 6.1 | 13.0 | 0.00 | 0.00 | 0.00 | 40 | 1012.0 |
| 20260504183032 | 71 | 182 | 5.2 | 10.4 | 0.00 | 0.00 | 0.00 | 41 | 1012.0 |
| 20260504181531 | 71 | 182 | 6.1 | 9.6 | 0.00 | 0.00 | 0.00 | 41 | 1012.1 |
| 20260504180029 | 70 | 129 | 3.5 | 9.6 | 0.00 | 0.00 | 0.00 | 43 | 1012.4 |
| 20260504174527 | 70 | 193 | 4.3 | 10.4 | 0.00 | 0.00 | 0.00 | 43 | 1012.5 |
| 20260504173025 | 70 | 156 | 4.3 | 10.4 | 0.00 | 0.00 | 0.00 | 42 | 1012.7 |
| 20260504171531 | 69 | 154 | 2.6 | 8.7 | 0.00 | 0.00 | 0.00 | 45 | 1012.7 |
| 20260504081537 | 48 | 267 | 0.0 | 1.7 | 0.00 | 0.00 | 0.00 | 67 | 1015.6 |
| 20260504050025 | 48 | 251 | 0.0 | 0.0 | 0.00 | 0.00 | 0.00 | 67 | 1015.7 |
| 20260504044525 | 48 | 251 | 0.0 | 2.6 | 0.00 | 0.00 | 0.00 | 66 | 1015.7 |
| 20260504043033 | 47 | 278 | 1.7 | 6.1 | 0.00 | 0.00 | 0.00 | 67 | 1015.7 |
| 20260504041522 | 46 | 229 | 0.0 | 3.5 | 0.00 | 0.00 | 0.00 | 69 | 1015.7 |
| 20260504040023 | 47 | 316 | 0.0 | 1.7 | 0.00 | 0.00 | 0.00 | 69 | 1015.5 |
| 20260504034516 | 47 | 316 | 0.0 | 0.0 | 0.00 | 0.00 | 0.00 | 67 | 1015.4 |
| 20260504033015 | 48 | 316 | 0.9 | 2.6 | 0.00 | 0.00 | 0.00 | 66 | 1015.2 |
| 20260504031514 | 48 | 255 | 0.9 | 1.7 | 0.00 | 0.00 | 0.00 | 63 | 1015.2 |
| 20260504030016 | 49 | 249 | 0.0 | 0.9 | 0.00 | 0.00 | 0.00 | 62 | 1015.1 |
| 20260504024515 | 49 | 248 | 0.0 | 2.6 | 0.00 | 0.00 | 0.00 | 59 | 1015.2 |
| 20260504023016 | 50 | 260 | 0.0 | 1.7 | 0.00 | 0.00 | 0.00 | 58 | 1015.0 |
| 20260504021514 | 50 | 230 | 0.0 | 1.7 | 0.00 | 0.00 | 0.00 | 55 | 1015.1 |
| 20260504020011 | 51 | 230 | 0.0 | 0.9 | 0.00 | 0.00 | 0.00 | 53 | 1015.1 |
| 20260504014511 | 51 | 230 | 0.9 | 3.5 | 0.00 | 0.00 | 0.00 | 50 | 1015.0 |
| 20260504013012 | 52 | 234 | 0.9 | 5.2 | 0.00 | 0.00 | 0.00 | 48 | 1015.0 |
| 20260504011518 | 53 | 269 | 0.0 | 1.7 | 0.00 | 0.00 | 0.00 | 48 | 1014.7 |
| 20260504010009 | 54 | 280 | 0.0 | 0.0 | 0.00 | 0.00 | 0.00 | 47 | 1014.6 |
| 20260504004509 | 56 | 280 | 0.0 | 0.0 | 0.00 | 0.00 | 0.00 | 45 | 1014.5 |
| 20260504003008 | 57 | 280 | 0.0 | 0.9 | 0.00 | 0.00 | 0.00 | 42 | 1014.4 |
| 20260504001507 | 58 | 280 | 0.0 | 1.7 | 0.00 | 0.00 | 0.00 | 41 | 1014.2 |
| 20260504000007 | 59 | 329 | 0.0 | 3.5 | 0.00 | 0.00 | 0.00 | 38 | 1014.2 |
| 20260503234506 | 60 | 305 | 1.7 | 6.1 | 0.00 | 0.00 | 0.00 | 35 | 1013.9 |
| 20260503233005 | 61 | 343 | 1.7 | 7.0 | 0.00 | 0.00 | 0.00 | 34 | 1013.7 |
| 20260503231505 | 61 | 355 | 1.7 | 12.2 | 0.00 | 0.00 | 0.00 | 33 | 1013.7 |
| 20260503230004 | 61 | 302 | 3.5 | 9.6 | 0.00 | 0.00 | 0.00 | 33 | 1013.7 |
| 20260503224504 | 61 | 336 | 5.2 | 13.9 | 0.00 | 0.00 | 0.00 | 32 | 1013.9 |
| 20260503223002 | 62 | 333 | 4.3 | 9.6 | 0.00 | 0.00 | 0.00 | 32 | 1013.7 |
| 20260503221501 | 62 | 331 | 5.2 | 14.8 | 0.00 | 0.00 | 0.00 | 32 | 1013.8 |
| 20260503220001 | 62 | 286 | 3.5 | 9.6 | 0.00 | 0.00 | 0.00 | 32 | 1013.8 |